Regional Weather Roundup
Issued by NWS

Home | Current Version | Previous Version | Text Only | Print | Product List | Glossary On
Versions: 1 2 3 4 5 6 7 8 9 10 11 12 13 14 15 16 17 18 19 20 21 22 23 24 25 26 27 28 29 30 31 32 33 34 35 36 37 38 39 40 41 42 43 44 45 46 47 48 49 50
000
ASHW40 PHFO 200243
RWRHI

WEATHER ROUNDUP FOR HAWAII
NATIONAL WEATHER SERVICE HONOLULU HI
400 PM HST MON FEB 19 2018

THIS IS AN AUTOMATED REPORT THAT HAS NOT BEEN QUALITY CONTROLLED.

NOTE..."FAIR" INDICATES FEW OR NO CLOUDS BELOW 12,000 FEET WITH NO
SIGNIFICANT WEATHER AND/OR OBSTRUCTIONS TO VISIBILITY.

* - THESE SITES REPORT LIMITED FIELDS
# - BUOY DATA PROVIDED BY PACIFIC ISLANDS OCEAN OBSERVING SYSTEM.

HIZ001>004-200300-
KAUAI-NIIHAU-

CITY           SKY/WX    TMP DP  RH WIND       PRES   REMARKS
LIHUE APT      MOSUNNY   76  65  68 NE8       29.92F
PORT ALLEN*      N/A     77 N/A N/A SE9         N/A
POIPU*           N/A     77 N/A N/A E7G14       N/A
PRINCEVILLE*     N/A     75 N/A N/A NE7         N/A
KOKOLE POINT*  NOT AVBL
MOLOAA DAIRY*    N/A     75  64  69 E5G10       N/A
WAIMEA HTS*      N/A     77  66  69 SW7G14      N/A
PUU OPAE*        N/A     70  57  64 SW7         N/A
PUU LUA*       NOT AVBL
MAKAHA RIDGE*    N/A     75  64  69 N2          N/A
$$

HIZ005>011-200300-
OAHU-

CITY           SKY/WX    TMP DP  RH WIND       PRES   REMARKS
HONOLULU       PTSUNNY   78  63  59 VRB5      29.89R
KALAELOA       MOSUNNY   76  64  66 SW8       29.90S
KANEOHE MCB    PTSUNNY   75  64  68 VRB5      29.88S
WHEELER FIELD  CLOUDY    73  64  73 NW10      29.92R
BELLOWS*         N/A    N/A N/A N/A NE6         N/A
KAHUKU*          N/A    N/A N/A N/A NE5         N/A
WHEELER*         N/A    N/A N/A N/A NW8         N/A
WAIANAE HARBOR   N/A    N/A N/A N/A W7          N/A
DILLINGHAM*    NOT AVBL
KAHUKU TRN*      N/A     79  64  61 W3G13       N/A
KAWAILOA*        N/A     73  63  68 NE5         N/A
KII*             N/A     75  64  69 E7          N/A
MAKUA RANGE*     N/A     77  63  61 E3          N/A
OAHU FOREST NW   N/A    N/A N/A N/A SE2G9       N/A
SCHOFIELD BRK*   N/A     73  63  68 MISG        N/A
SCHOFIELD S*   NOT AVBL
WAIANAE VLY*     N/A     79  64  61 S3G12       N/A
KUAOKALA*        N/A     70  63  78 N8          N/A
HONOULIUULI*   NOT AVBL
MOKUOLOE IS*   NOT AVBL
PALEHUA*         N/A     66  59  77 W5G10       N/A
WAIAWA PHB*    NOT AVBL
$$

HIZ012>013-200300-
MOLOKAI-

CITY           SKY/WX    TMP DP  RH WIND       PRES   REMARKS
MOLOKAI AIRPT  MOSUNNY   75  64  68 N12       29.90S
KALAUPAPA      NOT AVBL
MAKAPULAPAI*     N/A     75  64  69 NE5         N/A
MOLOKAI 1*       N/A     72  66  83 N1G8        N/A
PUU ALII*        N/A     81  43  25 W1          N/A
$$

HIZ016-200300-
KAHOOLAWE-

CITY           SKY/WX    TMP DP  RH WIND       PRES   REMARKS
KAHOOLAWE*     NOT AVBL
HAKIOAWA*        N/A     75  64  67 MISG      30.31
HONOKANAIA*    NOT AVBL
KANELOA*         N/A     79  64  61 SE3G10    29.94F
KEALIALALO*    NOT AVBL
LUA MAKIKA*    NOT AVBL
$$

HIZ014>015-200300-
LANAI-

CITY           SKY/WX    TMP DP  RH WIND       PRES   REMARKS
LANAI CITY     FAIR      71  60  68 NW8       29.93F
LANAI 1*         N/A     73  63  68 N8G14       N/A
$$

HIZ017>028-200300-
MAUI-

CITY           SKY/WX    TMP DP  RH WIND       PRES   REMARKS
KAHULUI        MOSUNNY   76  65  68 N10       29.89S
KAPALUA-W MAUI MOSUNNY   73  68  83 N15       29.89
HANA AIRPORT   SUNNY     72  32  23 CALM      29.93R
HANA*            N/A     73 N/A N/A N5          N/A
HALEAKALA SUMM   N/A     43  32  65 W14         N/A
MAALAEA BAY*     N/A     77 N/A N/A NE12G18     N/A
HALEAKALA*     NOT AVBL
KAUPO GAP*     NOT AVBL
KULA 1*          N/A     60  47  63 NW5G10      N/A
$$

HIZ023>026-200300-
BIG ISLAND OF HAWAII COAST AND LOWER SLOPES-

CITY           SKY/WX    TMP DP  RH WIND       PRES   REMARKS
KAILUA KONA    MOSUNNY   80  61  52 NW9       29.86R
HILO           MOSUNNY   73  70  88 SW3       29.89S
HONOKAA*         N/A     72 N/A N/A VRB1        N/A
KAWAIHAE MWT*    N/A     82 N/A N/A W7          N/A
KAWAIHAE*        N/A     79 N/A N/A NW7       29.85S
SOUTH POINT*     N/A     72 N/A N/A N12G17      N/A
UPOLU AIRPORT* NOT AVBL
KAMUELA*       CLEAR     73  50  43 CALM      29.99R
HAKALAU*         N/A     57  50  77 E5          N/A
KALOKO-HONOKO*   N/A     81  63  54 W6        29.86R
PALI 2*          N/A     66  61  82 NW8         N/A
KEALAKOMO*       N/A     79  66  65 E14G21      N/A
KAUPULEHU*       N/A     77  59  53 NW6G13      N/A
KAPAPALA*        N/A     68  65  90 W2          N/A
LOWER KAHUKU*    N/A     64  63  94 SE1         N/A
PUHE CS*         N/A     81  59  47 W3          N/A
PUHO CS*         N/A     80  64  56 W3          N/A
PTA KEAMUKU*     N/A     72  50  46 NW8G15      N/A
WAIKOLOA*        N/A     79  52  38 W7G13       N/A
$$

HIZ027>028-200300-
BIG ISLAND OF HAWAII INTERIOR AND SUMMMITS-

CITY           SKY/WX    TMP DP  RH WIND       PRES   REMARKS
BRADSHAW FIELD LGT RAIN  59  45  58 W9        30.17S
MK VISITOR CEN   N/A     45  36  70 W8          N/A
MAUNA KEA*       N/A     25  23  93 SW44G72     N/A  WCI   5
MAUNA LOA*       N/A    N/A N/A N/A MISG        N/A
MAUNA LOA 1*   NOT AVBL
PTA KIPUKA*      N/A     63  55  77 S8G17       N/A
PTA RANGE 17*    N/A     61  50  67 SE12G18     N/A
PTA WEST*        N/A     70  54  56 NW10        N/A
NENE CABIN*      N/A     61  48  63 SW10G17     N/A
AHUMOA*          N/A     62  48  60 W5G12       N/A
PTA PORTABLE*  NOT AVBL
PUU MALI*        N/A     52 N/A N/A N8G15       N/A
$$

HIC003-200300-
NORTHWEST ISLANDS-

CITY           SKY/WX    TMP DP  RH WIND       PRES   REMARKS
MIDWAY ISLAND  MOSUNNY   72  63  73 SE16      30.06F
MIDWAY NOS*      N/A     72 N/A N/A MISG      30.04S
FRENCH FRIGATE NOT AVBL
$$

PHZ110>124-180-200300-
BUOY REPORTS

STATION/POSITION TIME  TEMP    WIND        PRES    WAVE   SWELL
                       AIR SEA DIR/SP/G            HT/PER HT/DIR
                 (UTC) (F)     (DEG/KT/KT) (MB)    (FT/S) (FT/D)
BUOY 51001       0230   77 78   60/ 14/ 17 1009.9F
BUOY 51101       0150   71 74   30/ 16/ 17 1013.8F   7/14   7/320
BUOY 51100       NOT AVBL
BUOY 51002       0230   77 78   30/ 14/ 17 1010.4R
BUOY 51003       0150   75 77   60/ 10/ 12 1011.4F   7/ 8   7/ 60
BUOY 51004       0230   76 77   60/ 10/ 12 1011.6R
WAIMEA BAY#      0202      72                N/A     6/15   3/310
MOKAPU POINT#    0204      74                N/A     6/ 9   2/ 20
LANAI#           NOT AVBL
BARBERS PT 2#    NOT AVBL
PAUWELA#         0230      76                N/A     8/10   3/320
HILO#            0227      76                N/A     8/10   3/ 40
KANEOHE BAY#     NOT AVBL
KANEOHE BAY 2#   NOT AVBL
HANALEI#         0222      75                N/A     7/15   3/320
KAHULUI HARBOR   0206   72 77   10/  8/ 10 1012.0
HONOLULU HARBOR  0206   76 75  250/  5/  8 1011.5
PEARL HARBOR#    NOT AVBL
KILO NALU        NOT AVBL
HILO HARBOR      0206   72 75  240/  3/  4 1011.7
MOKUOLOE         0136   73 75   20/  4/  5 1012.4R
NAWILIWILI       0206   73 76   50/  5/  8 1012.8
WHOTS BUOY       NOT AVBL
BUOY 51028       NOT AVBL
$$

......................KEY........................................
  SKY/WX - SKY CONDITIONS/PRESENT WEATHER
  TMP    - TEMPERATURE IN FAHRENHEIT
  DWPT   - DEWPOINT IN FAHRENHEIT
  RH     - RELATIVE HUMIDITY IN PERCENT
  WIND   - DIRECTION AND SPEED /MPH FOR ISLANDS...KTS FOR BUOYS/
  PRES   - MEAN SEA LEVEL PRESSURE IN INCHES OF HG
  VSB    - VISIBILITY IN MILES
  HX     - HEAT INDEX
  WCI    - WIND CHILL INDEX
  VRB    - VARIABLE WIND DIRECTION
  N/A    - NOT AVAILABLE




USA.gov is the U.S. government's official web portal to all federal, state and local government web resources and services.